Regional Weather Roundup
Issued by NWS

Home | Current Version | Previous Version | Text Only | Print | Product List | Glossary On
Versions: 1 2 3 4 5 6 7 8 9 10 11 12 13 14 15 16 17 18 19 20 21 22 23 24 25 26 27 28 29 30 31 32 33 34 35 36 37 38 39 40 41 42 43 44 45 46 47 48 49 50
000
ASUS45 KBOI 271510
RWRID
WEATHER ROUNDUP FOR IDAHO
NATIONAL WEATHER SERVICE BOISE ID
800 AM MST TUE JAN 27 2015

NOTE: "FAIR" INDICATES FEW OR NO CLOUDS BELOW 12000 FEET
WITH NO SIGNIFICANT WEATHER AND/OR OBSTRUCTIONS TO VISIBILITY

IDZ012-014-271600-
SOUTHWEST IDAHO


CITY           SKY/WX    TMP DP  RH WIND       PRES   REMARKS
BOISE          FOG       28  27  96 CALM      30.11R VSB 1/4
CALDWELL       CLOUDY    28  25  86 NE3       30.14S VSB 1/2
MOUNTAIN HOME  FOG       32  30  93 SE3       30.10S VSB 1/4
$$

IDZ016-017-271600-
SOUTHCENTRAL IDAHO


CITY           SKY/WX    TMP DP  RH WIND       PRES   REMARKS
BURLEY         MOCLDY    34  30  85 CALM      30.09R
JEROME         PTCLDY    35  29  78 NE15      30.09S WCI  25
TWIN FALLS     PTCLDY    31  27  85 SE7       30.09R WCI  24
$$

IDZ019>023-271600-
SOUTHEAST IDAHO


CITY           SKY/WX    TMP DP  RH WIND       PRES   REMARKS
IDAHO FALLS    PTCLDY    24  21  88 N6        30.15S WCI  17
POCATELLO      CLEAR     25  24  96 N7        30.14S WCI  17
REXBURG        PTCLDY    20  14  77 CALM      30.16R
$$

IDZ006-010-011-018-031-032-271600-
CENTRAL IDAHO MOUNTAINS


CITY           SKY/WX    TMP DP  RH WIND       PRES   REMARKS
MCCALL         PTCLDY    20  18  92 CALM      30.06R
HAILEY         PTCLDY    30  25  80 NW9       30.15R WCI  22
STANLEY          N/A     10   5  80 CALM      30.16R
SALMON         CLOUDY   N/A N/A N/A CALM      30.17R VSB 1/2
CHALLIS        PTCLDY    24  22  91 S3        30.13S
$$

IDZ002-004-006-007-026-271600-
NORTHERN IDAHO


CITY           SKY/WX    TMP DP  RH WIND       PRES   REMARKS
LEWISTON       MOCLDY    39  35  86 E3        30.02R
LOWELL           N/A     36  33  89 CALM      30.12S
COEUR D`ALENE  PTCLDY    28  27  93 NE7       30.00R WCI  21
MULLAN PASS    PTCLDY    43  26  51 SW7       30.01S
$$


USA.gov is the U.S. government's official web portal to all federal, state and local government web resources and services.